Location: Dolcourt
(48.4903°N, 5.9774°E)
Time: 01:57:13
(UTC+00:00)

Daily predictions for brighter satellites

Satellite Brightness Start Highest point End
(mag) Time Altitude Azimuth Time Altitude Azimuth Time Altitude Azimuth
CZ-4C R/B 4.5 02:27:28 20° NE 02:27:28 20° NE 02:29:24 10° NE
Lacrosse 5 3.8 03:05:52 25° E 03:05:52 25° E 03:08:45 10° ENE
Cosmos 2082 Rocket 3.6 03:10:03 32° ESE 03:10:56 33° ESE 03:16:00 10° NE
ATLAS 2AS CENTAUR R/B 4.1 03:10:35 30° N 03:12:57 35° NNE 03:19:39 10° E
IDEFIX/ARIANE 42P 4.2 03:22:56 10° NNE 03:25:12 26° NNE 03:25:12 26° NNE
Cosmos 1833 Rocket 3.1 03:30:39 58° ENE 03:30:39 58° ENE 03:35:27 10° NNE
SL-16 R/B 3.9 03:37:15 17° N 03:40:31 28° NE 03:45:22 10° ESE
Lacrosse 5 rocket 3.9 03:45:49 14° NE 03:45:49 14° NE 03:46:30 10° NE
USA 234 3.9 03:40:41 10° ENE 03:46:46 42° N 03:47:41 40° NNW
Cosmos 1934 Rocket 3.9 03:47:42 71° SSW 03:48:28 86° W 03:54:54 10° N
Cosmos 1980 Rocket 2.2 03:48:15 73° NNE 03:48:40 77° ENE 03:54:21 10° SSE
Cosmos 2322 Rocket 3.9 03:47:22 15° N 03:51:08 28° NE 03:56:00 10° ESE
PAYLOAD A 4.3 03:48:56 10° NNE 03:54:16 71° ESE 03:57:24 26° S
Cosmos 2058 4.4 03:55:04 10° SSE 03:58:56 36° E 04:02:49 10° NNE
Cosmos 2112 Rocket 4.0 04:00:25 59° N 04:01:25 79° ENE 04:06:45 10° SSE
CZ-4B R/B 3.9 04:00:43 10° NNE 04:03:40 39° ENE 04:03:40 39° ENE
Cosmos 1076 Rocket 4.0 04:03:19 20° S 04:06:14 58° E 04:10:30 10° NNE
Cosmos 1680 Rocket 3.4 04:08:35 76° WNW 04:08:54 81° WSW 04:14:12 10° SSE
SL-4 R/B 2.6 04:11:24 60° N 04:11:29 60° N 04:16:17 10° E
Cosmos 1356 Rocket 3.6 04:11:53 64° NNE 04:12:22 72° ENE 04:16:39 10° SSE
CZ-4C R/B 3.5 04:12:40 28° NNW 04:12:44 28° NNW 04:18:20 10° NE
ADEOS 4.2 04:11:29 10° N 04:15:05 39° NNW 04:15:05 39° NNW
Gbstr 26 Del rocket 3.9 04:17:11 34° SSE 04:17:39 35° SE 04:21:05 10° ENE
Meteor 1-31 Rocket 2.9 04:14:41 10° NNE 04:18:33 73° ESE 04:18:34 73° ESE
Meteor 2-2 Rocket 4.1 04:14:31 14° NNW 04:19:21 75° W 04:24:57 10° S
Cosmos 158 Rocket 4.0 04:17:54 32° NNW 04:20:15 74° ENE 04:25:08 10° SSE
Cosmos 2360 4.2 04:20:23 54° WSW 04:20:31 54° WSW 04:26:04 10° S
Meteor 1-27 4.3 04:20:40 50° WNW 04:21:33 55° W 04:27:13 10° S
Meteor 2-20 4.4 04:16:18 10° N 04:22:31 86° E 04:28:41 10° S
SL-27 R/B 3.2 04:23:14 45° SE 04:23:34 47° ESE 04:26:47 10° NNE
FALCON 9 DEB 4.0 04:24:32 46° NE 04:24:32 46° NE 04:27:06 10° ENE
NOSS 3-4 (A) 4.5 04:19:53 21° NNW 04:24:27 49° NE 04:31:42 10° ESE
Cosmos 1484 Rocket 4.0 04:21:30 10° NNE 04:25:21 43° E 04:29:11 10° S
BREEZE-M DEB (TANK) 4.2 04:18:37 30° WNW 04:26:25 81° SSW 04:31:08 10° ESE
Cosmos 1869 3.3 04:28:33 67° SSW 04:28:33 67° SSW 04:32:01 10° S
Cosmos 2278 4.2 04:28:58 40° SW 04:28:58 40° SW 04:33:36 10° S
Cosmos 1697 Rocket 3.9 04:30:39 24° SW 04:30:39 24° SW 04:33:21 10° SSW
Cosmos 990 Rocket 4.4 04:23:32 10° S 04:28:37 62° ESE 04:33:46 10° NNE
Cosmos 1892 3.9 04:29:01 10° SSE 04:32:36 42° E 04:36:11 10° NNE
Cosmos 1605 Rocket 3.9 04:27:44 10° SSW 04:33:52 61° WNW 04:39:58 10° N
NOSS 3-3 (A) 4.3 04:29:03 10° SSW 04:34:53 64° SE 04:41:27 10° NE
NOSS 3-3 (C) 4.3 04:29:10 10° SSW 04:35:00 63° SE 04:41:34 10° NE
COSMOS 2455 3.1 04:31:30 20° NNW 04:35:47 69° NE 04:41:47 10° SE
MSX 4.1 04:34:40 10° N 04:40:06 45° WNW 04:42:18 31° WSW
Cosmos 839 Rocket 4.0 04:36:33 18° SW 04:42:04 74° NW 04:48:19 10° NE
COSMO-SKYMED 1 2.6 04:37:53 10° SSE 04:42:13 83° ENE 04:46:35 10° NNW
COSMOS 2406 4.3 04:44:00 25° NW 04:44:00 25° NW 04:48:35 10° N
deb Kosmos-1763 3.9 04:44:29 30° SSW 04:46:14 85° WNW 04:49:58 10° NNE
SJ 16-02 1.3 04:42:18 10° SSW 04:46:42 83° ESE 04:51:06 10° NNE
Lacrosse 5 1.8 04:45:07 38° WSW 04:47:01 70° NNW 04:52:07 10° NE
CZ-2C R/B 2.5 04:43:39 10° N 04:48:25 49° WNW 04:52:03 16° SW
ATLAS CENTAUR R/B 4.4 04:45:29 10° SSE 04:49:11 22° ESE 04:52:50 10° ENE
Cosmos 2151 3.4 04:46:46 10° S 04:51:01 64° E 04:55:18 10° NNE
ASTEX 1 3.6 04:48:13 10° SSW 04:52:57 45° W 04:57:45 10° NNW
Shenzhou-11 Module 3.4 04:53:16 24° S 04:53:16 24° S 04:55:30 10° SE
In-Cosmos 22 Rocket 4.1 04:49:01 10° S 04:54:22 87° E 04:59:54 10° NNE
Cosmos 2082 Rocket 2.4 04:51:59 26° WSW 04:54:51 47° NW 05:00:23 10° NNE
H-2A R/B 3.4 04:52:07 10° N 04:55:53 32° WNW 04:55:53 32° WNW
Cosmos 1898 Rocket 3.4 04:51:52 10° SSW 04:57:05 76° WNW 05:02:25 10° NNE
Cosmos 1825 4.2 04:54:25 10° SSE 04:57:44 31° E 05:01:05 10° NNE
PSLV R/B 3.6 04:55:21 10° N 04:59:11 75° WNW 05:03:05 10° SSW
Okean O Rocket 2.4 04:58:18 10° NNE 05:02:35 52° E 05:06:49 10° S
ATLAS 2AS CENTAUR R/B 2.9 04:58:02 14° NW 05:04:59 86° NE 05:12:08 10° SE
IDEFIX/ARIANE 42P 4.1 05:03:41 10° NNW 05:06:00 17° NW 05:06:00 17° NW
Cosmos 1937 Rocket 3.4 05:04:24 10° SSW 05:09:32 80° WNW 05:14:43 10° NNE
Cosmos 1833 Rocket 3.6 05:12:24 23° WNW 05:14:16 27° NW 05:19:02 10° NNE
Helios 1A Rocket 3.0 05:15:08 10° NNE 05:19:16 80° ESE 05:23:21 10° SSW
Cosmos 1459 Rocket 3.9 05:13:22 10° SSW 05:19:32 71° W 05:25:50 10° N
NOAA 6 4.3 05:14:28 10° NNE 05:19:38 72° ESE 05:24:44 10° S
USA 116 3.3 05:17:24 10° S 05:20:31 55° WSW 05:23:56 10° NNW
STARLINK-43 3.2 05:18:10 20° WSW 05:20:39 85° NNW 05:24:24 10° ENE
Cosmos 1725 Rocket 4.4 05:14:39 10° S 05:20:51 70° E 05:27:08 10° NNE
Lacrosse 5 rocket 2.6 05:21:28 15° NNW 05:23:34 25° NNE 05:26:34 10° ENE
Cosmos 858 Rocket 4.5 05:19:22 10° SW 05:24:28 60° WNW 05:29:38 10° NNE
Cosmos 2016 Rocket 4.0 05:18:29 10° S 05:24:44 90° S 05:31:07 10° N
SL-16 R/B 2.2 05:19:27 10° NNW 05:25:05 64° WSW 05:30:40 10° SSE
Cosmos 2237 Rocket 4.5 05:22:53 10° N 05:26:19 16° NE 05:29:45 10° ENE
Cosmos 2360 Rocket 2.6 05:21:05 10° NNW 05:26:46 65° ENE 05:32:24 10° SE
ALOS 2.2 05:23:02 10° N 05:27:43 75° WNW 05:32:22 10° SSW
USA 234 3.7 05:22:49 10° E 05:29:07 53° NNE 05:35:01 12° NW
SKYMED 2 4.3 05:26:34 10° SSW 05:30:29 33° W 05:34:27 10° NNW
STARLINK-52 3.7 05:28:42 21° WNW 05:30:42 44° N 05:34:06 10° ENE
Cosmos 1980 Rocket 3.5 05:30:06 16° WNW 05:32:00 19° W 05:35:53 10° SW
Tsikada Rocket 4.1 05:28:05 10° N 05:34:32 88° E 05:40:53 10° S
Cosmos 1515 Rocket 3.5 05:30:23 10° N 05:34:45 87° WSW 05:39:05 10° S
STARLINK-46 3.7 05:33:14 18° NW 05:35:00 36° N 05:37:47 10° E
Cosmos 2322 Rocket 2.3 05:30:01 10° NNW 05:35:36 61° WSW 05:41:10 10° S
Cosmos 1328 Rocket 3.6 05:31:40 10° NNW 05:35:55 53° W 05:40:07 10° S
Cosmos 2058 4.0 05:32:34 10° WSW 05:35:58 23° WNW 05:39:22 10° NNW
CZ-4B R/B 4.1 05:36:42 10° NNW 05:39:00 16° WNW 05:39:46 16° WNW
Cosmos 1151 Rocket 3.2 05:36:06 10° NNW 05:40:24 52° W 05:44:37 10° S
Cosmos 1743 Rocket 4.0 05:36:31 10° S 05:40:49 67° E 05:45:07 10° NNE
Cosmos 2100 Rocket 4.2 05:35:43 10° SSW 05:41:38 46° WNW 05:47:35 10° N
STARLINK-29 3.9 05:42:24 15° WNW 05:44:57 40° N 05:48:16 10° ENE
STARLINK-60 3.9 05:44:25 15° WNW 05:46:54 36° N 05:50:04 10° ENE
Cosmos 1782 4.2 05:45:01 10° N 05:48:50 40° ENE 05:52:36 10° SE
SL-08 R/B 4.4 05:43:08 10° SSW 05:49:14 72° W 05:55:20 10° N
SL-4 R/B 2.5 05:47:01 12° WNW 05:51:28 77° SSW 05:56:15 10° ESE
Cosmos 2298 Rocket 4.0 05:47:07 10° SSW 05:52:25 76° WNW 05:57:45 10° NNE
SOZ 4.4 05:48:04 10° W 05:52:30 59° NNW 05:54:42 10° ENE
ADEOS Rocket 4.0 05:45:26 10° SSE 05:53:08 70° ENE 06:00:31 10° N
Cosmos 1802 Rocket 4.3 05:48:54 10° SSW 05:55:06 49° WNW 06:01:20 10° N
SL-27 R/B 4.1 05:57:08 10° W 05:58:58 14° NW 06:00:48 10° NNW
Cosmos 2322 4.1 05:53:16 10° NNW 05:58:59 69° ENE 06:04:38 10° SE
Cosmos 1484 Rocket 4.1 05:56:33 10° NNW 05:59:30 20° WNW 06:02:27 10° WSW
Cosmos 372 Rocket 3.9 05:54:33 10° SSW 05:59:43 74° WNW 06:04:52 10° NNE
Cosmos 1408 Rocket 3.9 05:55:56 10° SW 06:00:01 41° WNW 06:04:09 10° N
FALCON 9 DEB 4.0 05:57:53 10° WNW 06:01:05 37° N 06:04:18 10° ENE
COSMOS 2487 2.3 05:57:47 10° SSW 06:01:13 69° WNW 06:04:41 10° NNE
Cosmos 1400 Rocket 2.8 05:59:15 10° NNW 06:03:22 81° W 06:07:24 10° S
Cosmos 1408 3.3 06:00:04 10° SW 06:03:24 32° WNW 06:06:44 10° N
CZ-4C R/B 4.1 05:58:40 10° NW 06:03:26 22° N 06:08:50 10° NE
Cosmos 2333 Rocket 3.1 05:57:59 10° NNW 06:03:36 49° NE 06:09:11 10° SE
Gbstr 26 Del rocket 2.7 06:00:30 10° W 06:04:16 66° NNW 06:08:03 10° ENE
CZ-4B R/B 3.3 05:59:16 10° N 06:04:28 52° WNW 06:09:43 10° SW
Cosmos 2061 Rocket 4.3 05:59:27 10° SSW 06:05:25 46° WNW 06:11:24 10° N
Cosmos 1500 Rocket 3.6 06:01:00 10° SSW 06:05:28 77° W 06:09:58 10° N
Cosmos 1048 Rocket 4.1 06:01:06 10° NNW 06:06:26 63° WSW 06:11:42 10° S
Meteor 1-26 Rocket 4.2 06:00:47 10° NNW 06:06:34 76° W 06:12:09 10° S
Cosmos 1606 2.8 06:03:05 10° NNW 06:06:47 52° W 06:10:28 10° S
STARLINK-67 2.5 06:05:37 10° WNW 06:08:16 72° SSW 06:10:53 10° SE
Cosmos 1892 4.2 06:06:00 10° WSW 06:08:31 17° WNW 06:11:03 10° NNW
Okean-O 3.7 06:05:39 10° NNE 06:10:00 52° E 06:14:19 10° S
CZ-4 R/B 4.0 06:07:11 10° NE 06:10:26 24° E 06:13:37 10° SSE
FENGYUN 3A 4.1 06:06:06 10° N 06:11:07 39° WNW 06:16:07 10° SW
